Powrót do katalogu

COSMOS 397 DEB

AktywnyLEO
NORAD 5017·DEBRIS·🇷🇺 Russia

Wystrzelony Feb 25, 1971 z Baikonur Cosmodrome

Loading…

Następne Przeloty

TLE

Source: Space-Track
1  5017U 71015L   26221.69414565  .00000811  00000-0  30380-3 0  9997
2  5017  65.7103 316.1636 0700432 106.0297 261.9005 13.48909357646787

Śledź COSMOS 397 DEB w czasie rzeczywistym z AllMySat

Download on the App Store